Погода в Хаапалампи

Россия / Республика Карелия     61°38′49″N   30°35′41″E
темп.,
°C
ветер,
м/с
пор.,
м/с
влажн.,
%
обл.,
%
осадки,
мм/ч
давл.,
гПа
погр.,
м
2 марта, вт
вт200:00+1зсз615818 0.0 1007817
03:000сз515814 0.0 1008741
06:00−1зсз414840 0.0 1006619
09:00−2сз513840 0.0 1008650
12:000сз6118149 0.0 1010951
15:00+1сз6147157 0.1 10121773
18:00−1сз513750 0.0 1014869
21:00−2зсз412880 0.0 1015429
3 марта, ср
ср300:00−2зсз413870 0.0 1015502
03:00−2зсз412850 0.0 1015534
06:00−3зсз412894 0.0 1012511
09:00−3з4119112 0.0 1012452
12:00−1з5118570 0.0 1009594
15:00+1з5108285 0.0 1006760
18:00+1зсз61386100 0.1 10021126
21:00−1зсз5138482 0.1 1001794
4 марта, чт
чт400:00−4сз5138032 0.0 1001626
03:00−6сз4118616 0.0 1001386
06:00−7сз39900 0.0 1001328
09:00−8сз4109026 0.0 1002480
12:00−6ссз488194 0.0 1002680
15:00−4ссз478097 0.1 1003893
18:00−5ссз4889100 0.3 1003646
21:00−7ссз498999 0.3 1004432
5 марта, пт
пт500:00−9сз39930 0.0 1005330
03:00−8сз389234 0.0 1006370
06:00−8ссз369299 0.1 1007329
09:00−9ссз248894 0.1 1009175
12:00−7с237499 0.0 1011650
15:00−6с357299 0.2 1013968
18:00−9ссз267837 0.0 1014257
21:00−11зсз278519 0.0 1015173
6 марта, сб
сб600:00−11зсз25930 0.0 1016157
03:00−11з25950 0.0 1015143
06:00−11з27920 0.0 1013206
09:00−9зюз3108422 0.0 1011396
12:00−6юз497498 0.0 1007727
15:00−5ююз6128599 0.1 1000981
18:00−4ююз51294100 1.6 994940
21:00−2зсз41188100 3.0 990927